Location: Grandview
(34.8900°N, 117.1058°W)
Time: 13:52:26
(UTC-07:00)

Hubble Space Telescope - Pass Details

Date: 09 October 2017
Orbit: 537 x 541 km, 28.5° (Epoch: 23 October)

Event Time Altitude Azimuth Distance (km) Brightness Sun altitude
Exits shadow 05:28:27 22° 212° (SSW) 1,188 2.2 -17.4°
Maximum altitude 05:29:16 24° 193° (SSW) 1,138 2.2 -17.3°
Drops below altitude 10° 05:32:37 10° 139° (SE) 1,785 3.9 -16.6°
Sets 05:35:11 0° 125° (SE) 2,675 5.2 -16.1°
